| time (UTC) | temp F | wind direction | speed MPH | gust MPH | rain 1hr in | rain 24hr in | rain mn in | humidity % | barometer mb |
| 20260906212231 | 80 | 321 | 2.0 | 3.0 | 0.00 | 0.00 | 0.00 | 61 | 1015.5 |
| 20260906211730 | 80 | 305 | 2.0 | 2.0 | 0.00 | 0.00 | 0.00 | 59 | 1015.5 |
| 20260906211226 | 80 | 298 | 1.0 | 3.0 | 0.00 | 0.00 | 0.00 | 60 | 1015.5 |
| 20260906210721 | 80 | 300 | 2.0 | 4.0 | 0.00 | 0.00 | 0.00 | 60 | 1015.5 |
| 20260906210215 | 79 | 299 | 4.0 | 4.0 | 0.00 | 0.00 | 0.00 | 60 | 1015.5 |
| 20260906205710 | 79 | 309 | 1.0 | 3.0 | 0.00 | 0.00 | 0.00 | 62 | 1015.3 |
| 20260906205207 | 79 | 284 | 0.0 | 2.0 | 0.00 | 0.00 | 0.00 | 62 | 1015.5 |
| 20260906204701 | 79 | 5 | 0.0 | 2.0 | 0.00 | 0.00 | 0.00 | 60 | 1015.5 |
| 20260906204201 | 80 | 336 | 1.0 | 2.0 | 0.00 | 0.00 | 0.00 | 59 | 1015.4 |
| 20260906203701 | 80 | 317 | 1.0 | 2.0 | 0.00 | 0.00 | 0.00 | 60 | 1015.5 |
| 20260906203156 | 81 | 67 | 1.0 | 3.0 | 0.00 | 0.00 | 0.00 | 58 | 1015.6 |
| 20260906202653 | 81 | 323 | 2.0 | 3.0 | 0.00 | 0.00 | 0.00 | 58 | 1015.6 |
| 20260906202151 | 81 | 314 | 2.0 | 3.0 | 0.00 | 0.00 | 0.00 | 59 | 1015.6 |
| 20260906201647 | 81 | 320 | 1.0 | 2.0 | 0.00 | 0.00 | 0.00 | 57 | 1015.6 |
| 20260906201145 | 81 | 304 | 4.0 | 4.0 | 0.00 | 0.00 | 0.00 | 57 | 1015.6 |
| 20260906200642 | 81 | 305 | 2.0 | 2.0 | 0.00 | 0.00 | 0.00 | 58 | 1015.4 |
| 20260906200138 | 81 | 327 | 0.0 | 3.0 | 0.00 | 0.00 | 0.00 | 56 | 1015.6 |
| 20260906195633 | 82 | 113 | 1.0 | 3.0 | 0.00 | 0.00 | 0.00 | 56 | 1015.7 |
| 20260906195130 | 81 | 356 | 2.0 | 3.0 | 0.00 | 0.00 | 0.00 | 57 | 1015.6 |
| 20260906194625 | 81 | 283 | 0.0 | 4.0 | 0.00 | 0.00 | 0.00 | 59 | 1015.4 |
| 20260906194120 | 81 | 306 | 2.0 | 3.0 | 0.00 | 0.00 | 0.00 | 57 | 1015.4 |
| 20260906193615 | 81 | 309 | 1.0 | 2.0 | 0.00 | 0.00 | 0.00 | 58 | 1015.5 |
| 20260906193110 | 81 | 311 | 0.0 | 3.0 | 0.00 | 0.00 | 0.00 | 57 | 1015.7 |
| 20260906192606 | 81 | 322 | 1.0 | 2.0 | 0.00 | 0.00 | 0.00 | 56 | 1015.5 |
| 20260906192105 | 81 | 343 | 2.0 | 4.0 | 0.00 | 0.00 | 0.00 | 59 | 1015.5 |
| 20260906191600 | 81 | 307 | 4.0 | 5.0 | 0.00 | 0.00 | 0.00 | 59 | 1015.5 |
| 20260906191059 | 81 | 335 | 1.0 | 4.0 | 0.00 | 0.00 | 0.00 | 58 | 1015.6 |
| 20260906190558 | 82 | 259 | 1.0 | 3.0 | 0.00 | 0.00 | 0.00 | 58 | 1015.6 |
| 20260906190053 | 81 | 313 | 3.0 | 6.0 | 0.00 | 0.00 | 0.00 | 58 | 1015.7 |
| 20260906185552 | 81 | 310 | 2.0 | 2.0 | 0.00 | 0.00 | 0.00 | 61 | 1015.8 |
| 20260906185051 | 81 | 311 | 2.0 | 2.0 | 0.00 | 0.00 | 0.00 | 60 | 1015.8 |
| 20260906184547 | 81 | 306 | 2.0 | 3.0 | 0.00 | 0.00 | 0.00 | 58 | 1015.9 |
| 20260906184042 | 81 | 309 | 2.0 | 2.0 | 0.00 | 0.00 | 0.00 | 60 | 1016.1 |
| 20260906183538 | 81 | 311 | 2.0 | 5.0 | 0.00 | 0.00 | 0.00 | 59 | 1016.1 |
| 20260906183034 | 82 | 326 | 2.0 | 3.0 | 0.00 | 0.00 | 0.00 | 58 | 1016.2 |
| 20260906182529 | 81 | 311 | 2.0 | 2.0 | 0.00 | 0.00 | 0.00 | 58 | 1016.2 |
| 20260906182025 | 81 | 310 | 2.0 | 3.0 | 0.00 | 0.00 | 0.00 | 60 | 1016.1 |
| 20260906181520 | 80 | 20 | 0.0 | 3.0 | 0.00 | 0.00 | 0.00 | 60 | 1016.1 |
| 20260906181016 | 81 | 314 | 0.0 | 3.0 | 0.00 | 0.00 | 0.00 | 57 | 1016.3 |
| 20260906180510 | 81 | 283 | 0.0 | 3.0 | 0.00 | 0.00 | 0.00 | 58 | 1015.8 |
| 20260906180009 | 81 | 316 | 2.0 | 3.0 | 0.00 | 0.00 | 0.00 | 60 | 1015.9 |
| 20260906175509 | 81 | 326 | 2.0 | 4.0 | 0.00 | 0.00 | 0.00 | 59 | 1016.1 |
| 20260906175003 | 81 | 0 | 0.0 | 4.0 | 0.00 | 0.00 | 0.00 | 59 | 1015.9 |
| 20260906174501 | 80 | 9 | 2.0 | 3.0 | 0.00 | 0.00 | 0.00 | 60 | 1016.1 |
| 20260906173956 | 80 | 286 | 1.0 | 2.0 | 0.00 | 0.00 | 0.00 | 62 | 1015.8 |
| 20260906173452 | 80 | 165 | 0.0 | 3.0 | 0.00 | 0.00 | 0.00 | 61 | 1015.9 |
| 20260906172951 | 81 | 313 | 2.0 | 3.0 | 0.00 | 0.00 | 0.00 | 60 | 1015.9 |
| 20260906172447 | 81 | 134 | 1.0 | 3.0 | 0.00 | 0.00 | 0.00 | 60 | 1016.1 |
| 20260906171943 | 80 | 298 | 2.0 | 3.0 | 0.00 | 0.00 | 0.00 | 61 | 1016.3 |
| 20260906171437 | 80 | 314 | 2.0 | 2.0 | 0.00 | 0.00 | 0.00 | 61 | 1016.3 |
| 20260906170933 | 81 | 21 | 0.0 | 2.0 | 0.00 | 0.00 | 0.00 | 60 | 1016.3 |
| 20260906170429 | 80 | 322 | 1.0 | 2.0 | 0.00 | 0.00 | 0.00 | 63 | 1016.4 |
| 20260906165925 | 80 | 334 | 2.0 | 3.0 | 0.00 | 0.00 | 0.00 | 61 | 1016.2 |
| 20260906165419 | 80 | 310 | 2.0 | 4.0 | 0.00 | 0.00 | 0.00 | 62 | 1016.3 |
| 20260906164914 | 80 | 320 | 0.0 | 2.0 | 0.00 | 0.00 | 0.00 | 63 | 1016.1 |
| 20260906164412 | 79 | 333 | 2.0 | 4.0 | 0.00 | 0.00 | 0.00 | 65 | 1016.3 |
| 20260906163909 | 78 | 287 | 1.0 | 2.0 | 0.00 | 0.00 | 0.00 | 67 | 1016.5 |
| 20260906163405 | 79 | 105 | 1.0 | 2.0 | 0.00 | 0.00 | 0.00 | 67 | 1016.5 |
| 20260906162902 | 79 | 32 | 0.0 | 5.0 | 0.00 | 0.00 | 0.00 | 66 | 1016.5 |
| 20260906162355 | 80 | 205 | 0.0 | 2.0 | 0.00 | 0.00 | 0.00 | 66 | 1016.7 |
| 20260906161851 | 80 | 300 | 2.0 | 2.0 | 0.00 | 0.00 | 0.00 | 67 | 1016.3 |
| 20260906161350 | 79 | 323 | 2.0 | 3.0 | 0.00 | 0.00 | 0.00 | 66 | 1016.5 |
| 20260906160849 | 79 | 17 | 2.0 | 4.0 | 0.00 | 0.00 | 0.00 | 67 | 1016.7 |
| 20260906160343 | 79 | 259 | 1.0 | 3.0 | 0.00 | 0.00 | 0.00 | 66 | 1016.8 |
| 20260906155841 | 79 | 202 | 0.0 | 2.0 | 0.00 | 0.00 | 0.00 | 65 | 1016.6 |
| 20260906155335 | 79 | 286 | 1.0 | 4.0 | 0.00 | 0.00 | 0.00 | 65 | 1016.7 |
| 20260906154832 | 78 | 87 | 1.0 | 2.0 | 0.00 | 0.00 | 0.00 | 66 | 1016.8 |
| 20260906154326 | 79 | 308 | 2.0 | 3.0 | 0.00 | 0.00 | 0.00 | 66 | 1016.8 |
| 20260906153824 | 78 | 309 | 2.0 | 3.0 | 0.00 | 0.00 | 0.00 | 66 | 1016.8 |
| 20260906153318 | 78 | 296 | 1.0 | 4.0 | 0.00 | 0.00 | 0.00 | 67 | 1016.9 |
| 20260906152814 | 78 | 312 | 1.0 | 2.0 | 0.00 | 0.00 | 0.00 | 69 | 1016.8 |
| 20260906152309 | 78 | 338 | 2.0 | 4.0 | 0.00 | 0.00 | 0.00 | 69 | 1016.9 |
| 20260906151808 | 78 | 319 | 0.0 | 3.0 | 0.00 | 0.00 | 0.00 | 70 | 1016.9 |
| 20260906151304 | 78 | 353 | 2.0 | 2.0 | 0.00 | 0.00 | 0.00 | 69 | 1016.7 |
| 20260906150759 | 77 | 156 | 0.0 | 4.0 | 0.00 | 0.00 | 0.00 | 71 | 1016.6 |
| 20260906150254 | 77 | 312 | 2.0 | 4.0 | 0.00 | 0.00 | 0.00 | 73 | 1016.4 |
| 20260906145754 | 77 | 309 | 2.0 | 2.0 | 0.00 | 0.00 | 0.00 | 74 | 1016.7 |
| 20260906145252 | 77 | 291 | 1.0 | 2.0 | 0.00 | 0.00 | 0.00 | 75 | 1016.6 |
| 20260906144747 | 77 | 138 | 0.0 | 2.0 | 0.00 | 0.00 | 0.00 | 77 | 1016.7 |
| 20260906144242 | 76 | 317 | 3.0 | 4.0 | 0.00 | 0.00 | 0.00 | 77 | 1016.5 |
| 20260906143742 | 76 | 309 | 1.0 | 3.0 | 0.00 | 0.00 | 0.00 | 78 | 1016.5 |
| 20260906143239 | 76 | 334 | 1.0 | 2.0 | 0.00 | 0.00 | 0.00 | 81 | 1016.5 |
| 20260906142738 | 76 | 293 | 0.0 | 3.0 | 0.00 | 0.00 | 0.00 | 81 | 1016.7 |
| 20260906142234 | 76 | 291 | 0.0 | 2.0 | 0.00 | 0.00 | 0.00 | 81 | 1016.7 |
| 20260906141732 | 76 | 76 | 2.0 | 4.0 | 0.00 | 0.00 | 0.00 | 80 | 1016.4 |
| 20260906141228 | 76 | 304 | 0.0 | 4.0 | 0.00 | 0.00 | 0.00 | 82 | 1016.5 |
| 20260906140727 | 75 | 306 | 2.0 | 3.0 | 0.00 | 0.00 | 0.00 | 83 | 1016.4 |
| 20260906140222 | 75 | 304 | 2.0 | 2.0 | 0.00 | 0.00 | 0.00 | 83 | 1016.6 |
| 20260906135718 | 75 | 6 | 1.0 | 3.0 | 0.00 | 0.00 | 0.00 | 83 | 1016.5 |
| 20260906135215 | 75 | 348 | 0.0 | 2.0 | 0.00 | 0.00 | 0.00 | 84 | 1016.4 |
| 20260906134710 | 74 | 316 | 1.0 | 2.0 | 0.00 | 0.00 | 0.00 | 84 | 1016.3 |
| 20260906134205 | 75 | 67 | 2.0 | 2.0 | 0.00 | 0.00 | 0.00 | 83 | 1016.5 |
| 20260906133701 | 74 | 355 | 2.0 | 3.0 | 0.00 | 0.00 | 0.00 | 85 | 1016.3 |
| 20260906133156 | 73 | 351 | 0.0 | 2.0 | 0.00 | 0.00 | 0.00 | 86 | 1016.1 |
| 20260906132651 | 73 | 338 | 0.0 | 2.0 | 0.00 | 0.00 | 0.00 | 87 | 1015.8 |
| 20260906132147 | 73 | 50 | 0.0 | 2.0 | 0.00 | 0.00 | 0.00 | 89 | 1016.1 |
| 20260906131642 | 72 | 333 | 0.0 | 1.0 | 0.00 | 0.00 | 0.00 | 89 | 1015.9 |
| 20260906131137 | 71 | 328 | 2.0 | 3.0 | 0.00 | 0.00 | 0.00 | 91 | 1015.6 |
| 20260906130632 | 71 | 341 | 0.0 | 2.0 | 0.00 | 0.00 | 0.00 | 92 | 1015.9 |
| 20260906130127 | 70 | 310 | 1.0 | 3.0 | 0.00 | 0.00 | 0.00 | 93 | 1015.9 |
| 20260906125624 | 70 | 300 | 2.0 | 3.0 | 0.00 | 0.00 | 0.00 | 92 | 1016.2 |
| 20260906125118 | 70 | 156 | 1.0 | 2.0 | 0.00 | 0.00 | 0.00 | 92 | 1015.9 |
| 20260906124614 | 70 | 38 | 0.0 | 2.0 | 0.00 | 0.00 | 0.00 | 93 | 1016.3 |
| 20260906124109 | 70 | 154 | 0.0 | 2.0 | 0.00 | 0.00 | 0.00 | 93 | 1016.1 |
| 20260906123608 | 70 | 300 | 0.0 | 2.0 | 0.00 | 0.00 | 0.00 | 93 | 1016.2 |
| 20260906123103 | 70 | 294 | 1.0 | 2.0 | 0.00 | 0.00 | 0.00 | 93 | 1016.3 |
| 20260906122602 | 70 | 322 | 0.0 | 2.0 | 0.00 | 0.00 | 0.00 | 93 | 1016.2 |
| 20260906122058 | 70 | 313 | 2.0 | 2.0 | 0.00 | 0.00 | 0.00 | 93 | 1015.7 |
| 20260906121554 | 70 | 311 | 0.0 | 2.0 | 0.00 | 0.00 | 0.00 | 93 | 1015.6 |
| 20260906121051 | 70 | 337 | 2.0 | 2.0 | 0.00 | 0.00 | 0.00 | 93 | 1015.8 |
| 20260906120551 | 70 | 329 | 1.0 | 2.0 | 0.00 | 0.00 | 0.00 | 93 | 1015.6 |
| 20260906120048 | 70 | 61 | 0.0 | 2.0 | 0.00 | 0.00 | 0.00 | 93 | 1015.7 |
| 20260906115543 | 70 | 325 | 2.0 | 2.0 | 0.00 | 0.00 | 0.00 | 93 | 1015.6 |
| 20260906115038 | 70 | 290 | 1.0 | 2.0 | 0.00 | 0.00 | 0.00 | 93 | 1015.6 |
| 20260906114538 | 70 | 320 | 2.0 | 2.0 | 0.00 | 0.00 | 0.00 | 93 | 1015.5 |
| 20260906114033 | 70 | 333 | 2.0 | 2.0 | 0.00 | 0.00 | 0.00 | 94 | 1015.3 |
| 20260906113532 | 70 | 313 | 1.0 | 2.0 | 0.00 | 0.00 | 0.00 | 94 | 1015.4 |
| 20260906113028 | 70 | 309 | 1.0 | 2.0 | 0.00 | 0.00 | 0.00 | 95 | 1015.2 |
| 20260906112523 | 70 | 305 | 1.0 | 3.0 | 0.00 | 0.00 | 0.00 | 95 | 1014.9 |
| 20260906112019 | 70 | 286 | 2.0 | 2.0 | 0.00 | 0.00 | 0.00 | 96 | 1015.0 |
| 20260906111519 | 70 | 306 | 1.0 | 2.0 | 0.00 | 0.00 | 0.00 | 96 | 1015.0 |
| 20260906111014 | 69 | 316 | 0.0 | 2.0 | 0.00 | 0.00 | 0.00 | 96 | 1014.9 |
| 20260906110509 | 69 | 304 | 1.0 | 2.0 | 0.00 | 0.00 | 0.00 | 96 | 1014.6 |
| 20260906110008 | 70 | 315 | 1.0 | 2.0 | 0.00 | 0.00 | 0.00 | 97 | 1014.7 |
| 20260906105503 | 70 | 288 | 1.0 | 1.0 | 0.00 | 0.00 | 0.00 | 97 | 1014.8 |
| 20260906104959 | 70 | 332 | 1.0 | 2.0 | 0.00 | 0.00 | 0.00 | 97 | 1014.7 |
| 20260906104457 | 70 | 345 | 1.0 | 2.0 | 0.00 | 0.00 | 0.00 | 97 | 1014.6 |
| 20260906103957 | 69 | 313 | 2.0 | 2.0 | 0.00 | 0.00 | 0.00 | 97 | 1014.7 |
| 20260906103455 | 69 | 325 | 0.0 | 2.0 | 0.00 | 0.00 | 0.00 | 98 | 1014.5 |
| 20260906102950 | 69 | 357 | 0.0 | 2.0 | 0.00 | 0.00 | 0.00 | 99 | 1014.4 |
| 20260906102451 | 69 | 332 | 2.0 | 2.0 | 0.00 | 0.00 | 0.00 | 99 | 1014.5 |
| 20260906101945 | 69 | 324 | 0.0 | 2.0 | 0.00 | 0.00 | 0.00 | 99 | 1014.5 |
| 20260906101440 | 70 | 233 | 0.0 | 2.0 | 0.00 | 0.00 | 0.00 | 99 | 1014.2 |
| 20260906100935 | 69 | 333 | 0.0 | 2.0 | 0.00 | 0.00 | 0.00 | 99 | 1014.4 |
| 20260906100435 | 69 | 328 | 1.0 | 1.0 | 0.00 | 0.00 | 0.00 | 99 | 1014.3 |
| 20260906095930 | 69 | 316 | 0.0 | 1.0 | 0.00 | 0.00 | 0.00 | 99 | 1014.2 |
| 20260906095425 | 69 | 222 | 0.0 | 2.0 | 0.00 | 0.00 | 0.00 | 99 | 1014.0 |
| 20260906094920 | 70 | 334 | 0.0 | 1.0 | 0.00 | 0.00 | 0.00 | 99 | 1014.0 |
| 20260906094415 | 70 | 331 | 0.0 | 2.0 | 0.00 | 0.00 | 0.00 | 99 | 1013.8 |
| 20260906093911 | 70 | 301 | 1.0 | 2.0 | 0.00 | 0.00 | 0.00 | 99 | 1014.1 |
| 20260906093407 | 70 | 308 | 0.0 | 2.0 | 0.00 | 0.00 | 0.00 | 99 | 1013.9 |
| 20260906092906 | 70 | 311 | 0.0 | 2.0 | 0.00 | 0.00 | 0.00 | 99 | 1013.7 |
| 20260906092401 | 70 | 322 | 1.0 | 2.0 | 0.00 | 0.00 | 0.00 | 99 | 1013.6 |
| 20260906091856 | 70 | 342 | 0.0 | 2.0 | 0.00 | 0.00 | 0.00 | 99 | 1013.8 |
| 20260906091352 | 70 | 325 | 1.0 | 2.0 | 0.00 | 0.00 | 0.00 | 99 | 1013.7 |
| 20260906090849 | 70 | 297 | 1.0 | 2.0 | 0.00 | 0.00 | 0.00 | 99 | 1013.7 |
| 20260906090348 | 71 | 316 | 1.0 | 2.0 | 0.00 | 0.00 | 0.00 | 99 | 1013.6 |
| 20260906085842 | 71 | 4 | 0.0 | 2.0 | 0.00 | 0.00 | 0.00 | 99 | 1013.4 |
| 20260906085336 | 71 | 326 | 1.0 | 2.0 | 0.00 | 0.00 | 0.00 | 99 | 1013.6 |
| 20260906084831 | 71 | 331 | 1.0 | 2.0 | 0.00 | 0.00 | 0.00 | 99 | 1013.5 |
| 20260906084331 | 71 | 334 | 1.0 | 2.0 | 0.00 | 0.00 | 0.00 | 99 | 1013.5 |
| 20260906083825 | 71 | 336 | 1.0 | 3.0 | 0.00 | 0.00 | 0.00 | 99 | 1013.7 |
| 20260906083321 | 71 | 334 | 1.0 | 2.0 | 0.00 | 0.00 | 0.00 | 99 | 1013.4 |
| 20260906082815 | 71 | 347 | 1.0 | 2.0 | 0.00 | 0.00 | 0.00 | 99 | 1013.5 |
| 20260906082310 | 71 | 295 | 1.0 | 2.0 | 0.00 | 0.00 | 0.00 | 99 | 1013.6 |
| 20260906081806 | 71 | 310 | 2.0 | 2.0 | 0.00 | 0.00 | 0.00 | 99 | 1013.6 |
| 20260906081302 | 71 | 354 | 0.0 | 2.0 | 0.00 | 0.00 | 0.00 | 99 | 1013.3 |
| 20260906080758 | 71 | 10 | 0.0 | 2.0 | 0.00 | 0.00 | 0.00 | 99 | 1013.4 |
| 20260906080254 | 71 | 349 | 0.0 | 2.0 | 0.00 | 0.00 | 0.00 | 99 | 1013.4 |
| 20260906075753 | 71 | 346 | 0.0 | 2.0 | 0.00 | 0.00 | 0.00 | 99 | 1013.4 |
| 20260906075253 | 71 | 323 | 1.0 | 2.0 | 0.00 | 0.00 | 0.00 | 99 | 1013.4 |
| 20260906074748 | 71 | 331 | 3.0 | 3.0 | 0.00 | 0.00 | 0.00 | 99 | 1013.1 |
| 20260906074247 | 71 | 319 | 0.0 | 1.0 | 0.00 | 0.00 | 0.00 | 99 | 1013.3 |
| 20260906073748 | 71 | 88 | 1.0 | 3.0 | 0.00 | 0.00 | 0.00 | 99 | 1013.5 |
| 20260906073248 | 71 | 346 | 0.0 | 2.0 | 0.00 | 0.00 | 0.00 | 99 | 1013.2 |
| 20260906072743 | 71 | 346 | 0.0 | 2.0 | 0.00 | 0.00 | 0.00 | 99 | 1013.3 |
| 20260906072239 | 71 | 329 | 0.0 | 1.0 | 0.00 | 0.00 | 0.00 | 99 | 1013.5 |
| 20260906071735 | 71 | 44 | 0.0 | 2.0 | 0.00 | 0.00 | 0.00 | 99 | 1013.3 |
| 20260906071235 | 71 | 344 | 2.0 | 2.0 | 0.00 | 0.00 | 0.00 | 99 | 1013.1 |
| 20260906070731 | 71 | 341 | 1.0 | 2.0 | 0.00 | 0.00 | 0.00 | 99 | 1013.1 |
| 20260906070227 | 71 | 323 | 0.0 | 3.0 | 0.00 | 0.00 | 0.00 | 99 | 1013.2 |
| 20260906065726 | 71 | 322 | 0.0 | 2.0 | 0.00 | 0.00 | 0.00 | 99 | 1013.4 |
| 20260906065222 | 71 | 324 | 2.0 | 2.0 | 0.00 | 0.00 | 0.00 | 99 | 1013.4 |
| 20260906064717 | 71 | 309 | 1.0 | 2.0 | 0.00 | 0.00 | 0.00 | 99 | 1013.2 |
| 20260906064213 | 71 | 330 | 1.0 | 2.0 | 0.00 | 0.00 | 0.00 | 99 | 1013.1 |
| 20260906063708 | 71 | 321 | 0.0 | 2.0 | 0.00 | 0.00 | 0.00 | 99 | 1013.3 |
| 20260906063203 | 71 | 335 | 1.0 | 3.0 | 0.00 | 0.00 | 0.00 | 99 | 1013.3 |
| 20260906062659 | 71 | 320 | 0.0 | 2.0 | 0.00 | 0.00 | 0.00 | 99 | 1013.4 |
| 20260906062158 | 71 | 317 | 1.0 | 2.0 | 0.00 | 0.00 | 0.00 | 99 | 1013.3 |
| 20260906061654 | 71 | 349 | 0.0 | 2.0 | 0.00 | 0.00 | 0.00 | 99 | 1013.1 |
| 20260906061149 | 71 | 325 | 0.0 | 2.0 | 0.00 | 0.00 | 0.00 | 99 | 1013.3 |
| 20260906060645 | 71 | 259 | 0.0 | 2.0 | 0.00 | 0.00 | 0.00 | 99 | 1013.4 |
| 20260906060142 | 71 | 303 | 1.0 | 2.0 | 0.00 | 0.00 | 0.00 | 99 | 1013.3 |
| 20260906055638 | 72 | 322 | 1.0 | 2.0 | 0.00 | 0.00 | 0.00 | 99 | 1013.5 |
| 20260906055133 | 72 | 332 | 0.0 | 2.0 | 0.00 | 0.00 | 0.00 | 99 | 1013.4 |
| 20260906054628 | 72 | 347 | 0.0 | 2.0 | 0.00 | 0.00 | 0.00 | 99 | 1013.5 |
| 20260906054123 | 72 | 343 | 0.0 | 2.0 | 0.00 | 0.00 | 0.00 | 99 | 1013.7 |
| 20260906053620 | 72 | 355 | 0.0 | 2.0 | 0.00 | 0.00 | 0.00 | 99 | 1013.7 |
| 20260906053119 | 72 | 331 | 1.0 | 2.0 | 0.00 | 0.00 | 0.00 | 99 | 1013.5 |
| 20260906052615 | 72 | 347 | 1.0 | 2.0 | 0.00 | 0.00 | 0.00 | 99 | 1013.6 |
| 20260906052112 | 72 | 333 | 0.0 | 2.0 | 0.00 | 0.00 | 0.00 | 99 | 1013.6 |
| 20260906051608 | 72 | 342 | 0.0 | 2.0 | 0.00 | 0.00 | 0.00 | 99 | 1013.6 |
| 20260906051103 | 72 | 326 | 0.0 | 2.0 | 0.00 | 0.00 | 0.00 | 99 | 1013.7 |
| 20260906050558 | 72 | 345 | 0.0 | 2.0 | 0.00 | 0.00 | 0.00 | 99 | 1013.8 |
| 20260906050053 | 72 | 326 | 0.0 | 2.0 | 0.00 | 0.00 | 0.00 | 99 | 1013.6 |
| 20260906045551 | 72 | 346 | 0.0 | 2.0 | 0.00 | 0.00 | 0.00 | 99 | 1013.7 |
| 20260906045047 | 72 | 312 | 1.0 | 1.0 | 0.00 | 0.00 | 0.00 | 99 | 1014.0 |
| 20260906044542 | 72 | 336 | 1.0 | 2.0 | 0.00 | 0.00 | 0.00 | 99 | 1013.9 |
| 20260906044038 | 72 | 312 | 0.0 | 2.0 | 0.00 | 0.00 | 0.00 | 99 | 1013.9 |
| 20260906043533 | 72 | 330 | 0.0 | 2.0 | 0.00 | 0.00 | 0.00 | 99 | 1013.8 |
| 20260906043030 | 72 | 21 | 0.0 | 2.0 | 0.00 | 0.00 | 0.00 | 99 | 1014.0 |
| 20260906042528 | 72 | 335 | 0.0 | 1.0 | 0.00 | 0.00 | 0.00 | 99 | 1013.8 |
| 20260906042023 | 72 | 353 | 0.0 | 1.0 | 0.00 | 0.00 | 0.00 | 99 | 1013.9 |
| 20260906041520 | 72 | 335 | 0.0 | 2.0 | 0.00 | 0.00 | 0.00 | 99 | 1013.8 |
| 20260906041019 | 72 | 337 | 1.0 | 2.0 | 0.00 | 0.00 | 0.00 | 99 | 1013.9 |
| 20260906040515 | 72 | 325 | 0.0 | 2.0 | 0.00 | 0.00 | 0.00 | 99 | 1013.5 |
| 20260906040010 | 72 | 230 | 0.0 | 2.0 | 0.00 | 0.00 | 0.00 | 99 | 1013.6 |
| 20260906035505 | 72 | 317 | 1.0 | 2.0 | 0.00 | 0.39 | 0.39 | 99 | 1014.0 |
| 20260906035001 | 72 | 327 | 0.0 | 2.0 | 0.00 | 0.39 | 0.39 | 99 | 1013.8 |
| 20260906034500 | 72 | 324 | 2.0 | 3.0 | 0.00 | 0.39 | 0.39 | 99 | 1014.1 |
| 20260906033955 | 72 | 335 | 1.0 | 1.0 | 0.00 | 0.39 | 0.39 | 99 | 1013.8 |
| 20260906033450 | 72 | 303 | 2.0 | 2.0 | 0.00 | 0.39 | 0.39 | 99 | 1013.7 |
| 20260906032946 | 72 | 344 | 0.0 | 2.0 | 0.00 | 0.39 | 0.39 | 99 | 1013.7 |
| 20260906032443 | 72 | 339 | 0.0 | 2.0 | 0.00 | 0.39 | 0.39 | 99 | 1013.7 |
| 20260906031937 | 72 | 335 | 1.0 | 2.0 | 0.00 | 0.39 | 0.39 | 99 | 1013.7 |
| 20260906031432 | 72 | 346 | 0.0 | 2.0 | 0.00 | 0.39 | 0.39 | 99 | 1013.8 |
| 20260906030927 | 72 | 0 | 0.0 | 2.0 | 0.00 | 0.39 | 0.39 | 99 | 1013.7 |
| 20260906030422 | 72 | 326 | 0.0 | 1.0 | 0.00 | 0.39 | 0.39 | 99 | 1013.7 |
| 20260906025916 | 72 | 329 | 0.0 | 2.0 | 0.00 | 0.39 | 0.39 | 99 | 1013.8 |
| 20260906025411 | 72 | 330 | 0.0 | 1.0 | 0.00 | 0.39 | 0.39 | 99 | 1013.8 |
| 20260906024910 | 72 | 346 | 0.0 | 2.0 | 0.00 | 0.39 | 0.39 | 99 | 1013.8 |
| 20260906024409 | 72 | 0 | 0.0 | 1.0 | 0.00 | 0.39 | 0.39 | 99 | 1013.7 |
| 20260906023904 | 72 | 344 | 0.0 | 2.0 | 0.00 | 0.39 | 0.39 | 99 | 1013.7 |
| 20260906023400 | 73 | 345 | 0.0 | 0.0 | 0.00 | 0.39 | 0.39 | 99 | 1013.7 |
| 20260906022855 | 72 | 322 | 0.0 | 0.0 | 0.00 | 0.39 | 0.39 | 99 | 1013.8 |
| 20260906022350 | 73 | 348 | 0.0 | 2.0 | 0.00 | 0.39 | 0.39 | 99 | 1013.9 |
| 20260906021845 | 73 | 341 | 0.0 | 1.0 | 0.00 | 0.39 | 0.39 | 99 | 1013.7 |
| 20260906021344 | 73 | 336 | 0.0 | 1.0 | 0.00 | 0.39 | 0.39 | 99 | 1013.7 |
| 20260906020834 | 73 | 339 | 0.0 | 2.0 | 0.00 | 0.39 | 0.39 | 99 | 1013.9 |
| 20260906020333 | 73 | 350 | 0.0 | 0.0 | 0.00 | 0.39 | 0.39 | 99 | 1013.9 |
| 20260906015828 | 73 | 326 | 0.0 | 1.0 | 0.00 | 0.39 | 0.39 | 99 | 1013.6 |
| 20260906015326 | 73 | 318 | 0.0 | 2.0 | 0.00 | 0.39 | 0.39 | 99 | 1013.6 |
| 20260906014821 | 73 | 343 | 0.0 | 2.0 | 0.00 | 0.39 | 0.39 | 99 | 1013.7 |
| 20260906014316 | 73 | 327 | 0.0 | 2.0 | 0.00 | 0.39 | 0.39 | 99 | 1013.6 |
| 20260906013812 | 74 | 353 | 0.0 | 2.0 | 0.00 | 0.39 | 0.39 | 99 | 1013.6 |
| 20260906013307 | 74 | 333 | 1.0 | 1.0 | 0.00 | 0.39 | 0.39 | 99 | 1013.6 |
| 20260906012803 | 74 | 330 | 1.0 | 2.0 | 0.00 | 0.39 | 0.39 | 99 | 1013.5 |
| 20260906012257 | 74 | 328 | 1.0 | 2.0 | 0.00 | 0.39 | 0.39 | 99 | 1013.3 |
| 20260906011753 | 74 | 303 | 1.0 | 2.0 | 0.00 | 0.39 | 0.39 | 99 | 1013.5 |
| 20260906011252 | 74 | 296 | 1.0 | 1.0 | 0.00 | 0.39 | 0.39 | 99 | 1013.2 |
| 20260906010748 | 74 | 333 | 0.0 | 1.0 | 0.00 | 0.39 | 0.39 | 99 | 1013.3 |
| 20260906010244 | 74 | 312 | 1.0 | 2.0 | 0.00 | 0.39 | 0.39 | 99 | 1013.0 |
| 20260906005739 | 74 | 314 | 0.0 | 2.0 | 0.00 | 0.39 | 0.39 | 98 | 1013.1 |
| 20260906005238 | 74 | 327 | 1.0 | 2.0 | 0.00 | 0.39 | 0.39 | 98 | 1013.0 |
| 20260906004737 | 74 | 315 | 0.0 | 2.0 | 0.00 | 0.39 | 0.39 | 98 | 1012.9 |
| 20260906004233 | 74 | 322 | 0.0 | 1.0 | 0.00 | 0.39 | 0.39 | 98 | 1012.8 |
| 20260906003732 | 74 | 315 | 0.0 | 1.0 | 0.00 | 0.39 | 0.39 | 98 | 1012.9 |
| 20260906003228 | 74 | 306 | 1.0 | 2.0 | 0.00 | 0.39 | 0.39 | 98 | 1012.9 |
| 20260906002723 | 74 | 326 | 1.0 | 2.0 | 0.00 | 0.39 | 0.39 | 98 | 1012.7 |
| 20260906002218 | 74 | 321 | 1.0 | 2.0 | 0.00 | 0.39 | 0.39 | 98 | 1012.9 |
| 20260906001713 | 74 | 336 | 0.0 | 1.0 | 0.00 | 0.39 | 0.39 | 98 | 1012.9 |
| 20260906001214 | 74 | 313 | 0.0 | 2.0 | 0.00 | 0.39 | 0.39 | 98 | 1012.8 |
| 20260906000709 | 74 | 326 | 0.0 | 1.0 | 0.00 | 0.39 | 0.39 | 98 | 1012.3 |
| 20260906000204 | 74 | 318 | 1.0 | 2.0 | 0.00 | 0.39 | 0.39 | 97 | 1012.5 |
| 20260905235703 | 75 | 309 | 0.0 | 2.0 | 0.00 | 0.39 | 0.39 | 97 | 1012.3 |
| 20260905235158 | 75 | 310 | 1.0 | 1.0 | 0.00 | 0.39 | 0.39 | 97 | 1012.3 |
| 20260905234654 | 75 | 224 | 0.0 | 1.0 | 0.00 | 0.39 | 0.39 | 96 | 1012.6 |
| 20260905234149 | 75 | 344 | 1.0 | 2.0 | 0.00 | 0.39 | 0.39 | 96 | 1012.2 |
| 20260905233644 | 75 | 328 | 0.0 | 2.0 | 0.00 | 0.39 | 0.39 | 95 | 1012.2 |
| 20260905233143 | 75 | 307 | 1.0 | 2.0 | 0.00 | 0.39 | 0.39 | 95 | 1012.4 |
| 20260905232638 | 75 | 324 | 1.0 | 1.0 | 0.00 | 0.39 | 0.39 | 96 | 1012.1 |
| 20260905232134 | 75 | 344 | 0.0 | 2.0 | 0.00 | 0.39 | 0.39 | 96 | 1011.9 |
| 20260905231629 | 75 | 0 | 0.0 | 2.0 | 0.00 | 0.39 | 0.39 | 95 | 1011.7 |
| 20260905231126 | 75 | 333 | 0.0 | 1.0 | 0.00 | 0.39 | 0.39 | 95 | 1011.9 |
| 20260905230621 | 76 | 338 | 0.0 | 1.0 | 0.00 | 0.39 | 0.39 | 94 | 1012.1 |
| 20260905230118 | 76 | 208 | 0.0 | 2.0 | 0.00 | 0.39 | 0.39 | 93 | 1012.2 |
| 20260905225613 | 76 | 304 | 0.0 | 1.0 | 0.00 | 0.39 | 0.39 | 92 | 1012.6 |
| 20260905225108 | 75 | 335 | 0.0 | 1.0 | 0.00 | 0.39 | 0.39 | 93 | 1012.6 |
| 20260905224608 | 76 | 336 | 1.0 | 1.0 | 0.00 | 0.39 | 0.39 | 93 | 1012.7 |
| 20260905224107 | 76 | 312 | 0.0 | 1.0 | 0.00 | 0.39 | 0.39 | 91 | 1012.6 |
| 20260905223605 | 76 | 311 | 0.0 | 1.0 | 0.00 | 0.39 | 0.39 | 91 | 1012.3 |
| 20260905223101 | 77 | 318 | 1.0 | 2.0 | 0.00 | 0.39 | 0.39 | 89 | 1012.3 |
| 20260905222601 | 77 | 298 | 1.0 | 3.0 | 0.00 | 0.39 | 0.39 | 89 | 1012.6 |
| 20260905222056 | 76 | 317 | 1.0 | 2.0 | 0.00 | 0.39 | 0.39 | 89 | 1012.5 |
| 20260905221552 | 76 | 311 | 0.0 | 2.0 | 0.00 | 0.39 | 0.39 | 90 | 1012.3 |
| 20260905221048 | 76 | 323 | 1.0 | 2.0 | 0.00 | 0.39 | 0.39 | 90 | 1012.4 |
| 20260905220543 | 76 | 325 | 1.0 | 1.0 | 0.00 | 0.39 | 0.39 | 89 | 1012.2 |
| 20260905220039 | 77 | 328 | 2.0 | 2.0 | 0.00 | 0.39 | 0.39 | 89 | 1012.1 |
| 20260905215538 | 77 | 329 | 0.0 | 1.0 | 0.00 | 0.39 | 0.39 | 87 | 1012.2 |
| 20260905215035 | 77 | 325 | 0.0 | 2.0 | 0.00 | 0.39 | 0.39 | 87 | 1012.2 |
| 20260905214531 | 77 | 317 | 1.0 | 2.0 | 0.00 | 0.39 | 0.39 | 88 | 1012.4 |
| 20260905214025 | 77 | 319 | 1.0 | 2.0 | 0.00 | 0.39 | 0.39 | 87 | 1012.1 |
| 20260905213520 | 77 | 329 | 1.0 | 2.0 | 0.00 | 0.39 | 0.39 | 88 | 1012.3 |
| 20260905213016 | 77 | 313 | 1.0 | 3.0 | 0.00 | 0.39 | 0.39 | 86 | 1012.2 |
| 20260905212511 | 77 | 2 | 1.0 | 2.0 | 0.00 | 0.39 | 0.39 | 89 | 1012.2 |